Regional Weather Roundup
Issued by NWS Sterling, VA

Home | Current Version | Previous Version | Text Only | Print | Product List | Glossary On
Versions: 1 2 3 4 5 6 7 8 9 10 11 12 13 14 15 16 17 18 19 20 21 22 23 24 25 26 27 28 29 30 31 32 33 34 35 36 37 38 39 40 41 42 43 44 45 46 47 48 49 50
000
ASUS41 KLWX 301310
RWRLWX

REGIONAL WEATHER ROUNDUP
NATIONAL WEATHER SERVICE BALTIMORE MD/WASHINGTON DC
800 AM EST FRI JAN 30 2015

Note: "FAIR" indicates few or no clouds below 12,000 feet
with no significant weather and/or obstructions to visibility.
 TC=TEMPERATURE CELSIUS

 * =Non NWS site. Station does not report precipitation (e.g. rain,
    snow, etc.), thunder, or fog.

DCZ001-MDZ009-015-VAZ040>042-051-053>054-301400-
WASHINGTON METRO

CITY           SKY/WX    TMP DP  RH WIND       PRES   REMARKS
WASHINGTON NAT MOCLDY    40  22  48 NW13G22   30.00R
DULLES         MOCLDY    35  22  58 NW10      30.00R WCI  27
ANDREWS AFB    PTCLDY    37  23  57 NW18      29.97R WCI  26
FT BELVOIR     CLOUDY    38  22  52 NW9       30.01R
QUANTICO       PTCLDY    39  22  50 N8G20     30.03R
COLLEGE PARK*  MOCLDY    37  25  60 W10G21    29.99R
LEESBURG*      CLOUDY    36  28  75 NW7       30.00S
MANASSAS*      MOCLDY   N/A N/A N/A NW9G18    30.01R
GAITHERSBURG*  CLOUDY    34  21  60 NW14      30.01R WCI  24

$$

MDZ006>007-011-014-301400-
BALTIMORE METRO

CITY           SKY/WX    TMP DP  RH WIND       PRES   REMARKS
BWI AIRPORT    PTCLDY    35  24  64 W10       29.97R WCI  27
MD SCIENCE CTR   N/A     37  22  54 MISG      29.97R
MARTIN STATE   PTCLDY    36  28  75 W9        29.98R WCI  29
ANNAPOLIS      PTCLDY    38  25  59 NW9       29.98R
FORT MEADE*    PTCLDY    34  25  69 NW7       30.01R

$$

MDZ012-015-019>023-301400-
MARYLAND EASTERN SHORE

CITY           SKY/WX    TMP DP  RH WIND       PRES   REMARKS
OCEAN CITY     CLOUDY    37  30  75 NW6       29.93R
SALISBURY      CLOUDY    41  29  62 NW13      29.92S
BAY BRIDGE AP*   N/A     36  28  75 NW15      29.98R WCI  26
CAMBRIDGE*     MOCLDY    41  28  60 NW13G23   29.94S
EASTON*        CLOUDY    39  30  70 NW15G23   29.99R

$$

MDZ017>025-301400-
SOUTHERN MARYLAND

CITY           SKY/WX    TMP DP  RH WIND       PRES   REMARKS
PATUXENT RIVER PTCLDY    39  27  62 NW21      29.95R WCI  29
ST INIGOES     CLOUDY    41  24  51 NW18G28   29.95R
LEONARDTOWN*   PTCLDY    37  25  60 NW13G20   29.98R

$$

MDZ003>005-301400-
NORTH CENTRAL MARYLAND

CITY           SKY/WX    TMP DP  RH WIND       PRES   REMARKS
FREDERICK*     MOCLDY    36  21  55 NW12      30.02R WCI  27
HAGERSTOWN APT CLOUDY    34  24  67 NW13      29.98R WCI  25
WESTMINSTER*   CLOUDY    32  23  69 W8        29.95R WCI  25

$$

MDZ501>502-301400-
WESTERN MARYLAND

CITY           SKY/WX    TMP DP  RH WIND       PRES   REMARKS
OAKLAND*       CLOUDY    21 N/A N/A NW12G22   29.94R FOG     WCI   9
CUMBERLAND*    CLOUDY    34  28  80 NW9G20    30.07R WCI  26

$$

VAZ025>031-301400-
SHENANDOAH VALLEY

CITY           SKY/WX    TMP DP  RH WIND       PRES   REMARKS
WINCHESTER*    CLOUDY    36  23  60 NW14      29.99S WCI  27
FRONT ROYAL*   CLOUDY    36  23  60 NW3       29.99S
LURAY*         CLOUDY    37  27  65 CALM      29.99S
NEW MARKET*    CLOUDY    34  24  65 CALM      29.99S
STAUNTON*      CLOUDY    36  23  59 W6        30.01S
WAYNESBORO*    CLOUDY    34  22  62 NW7       29.99R

$$

WVZ021-048>050-054>055-301400-
EASTERN WEST VIRGINIA PANHANDLE

CITY           SKY/WX    TMP DP  RH WIND       PRES   REMARKS
MARTINSBURG    CLOUDY    36  23  59 W6        29.99R
PETERSBURG*    FLURRIES  35  22  59 NW21      30.05R WCI  23

$$

VAZ036>039-050-301400-
CENTRAL FOOTHILLS

CITY           SKY/WX    TMP DP  RH WIND       PRES   REMARKS
CHARLOTTESVILL CLOUDY    39  23  52 NW7G17    30.00R
CULPEPER*      CLOUDY    39  25  56 N6        30.01R
ORANGE*        CLOUDY    39  27  60 W6        30.02R
GORDONSVILLE*  CLOUDY    39  25  56 NW3       30.00R
WARRENTON*     MOCLDY    39  29  68 NW12      30.00R

$$

VAZ055>057-301400-
NORTH AND CENTRAL PIEDMONT

CITY           SKY/WX    TMP DP  RH WIND       PRES   REMARKS
FREDERICKSBRG* PTCLDY    40  27  57 NW6G16    30.00R
STAFFORD*      CLEAR     37  24  58 NW13      30.05R WCI  29

$$

NCZ024-NYZ072-PAZ021-071-VAZ022-071-301400-
OTHER REGIONAL OBSERVATIONS

CITY           SKY/WX    TMP DP  RH WIND       PRES   REMARKS
NEW YORK CITY  CLOUDY    32  25  75 W7        29.86R
PHILADELPHIA   MOCLDY    35  25  66 NW12      29.92R WCI  27
PITTSBURGH     LGT SNOW  24  20  84 NW22      30.11R BLWGSNOWWCI   9
ROANOKE        CLOUDY    36  20  52 W20G28    30.08R WCI  25
RICHMOND       MOCLDY    41  27  57 NW6       29.98R
RALEIGH        PTCLDY    42  25  50 VRB7      30.04R

$$

ANZ530>537-301400-
MARINE OBSERVATIONS

STATION/POSITION TIME  TEMP    WIND        PRES
                       AIR SEA DIR/SP/G
                 (UTC) (F)     (DEG/KT/KT) (MB)
THOMAS PT LIGHT  1300   38 35  320/ 14/ 16 1016.0R
BALT KEY BRIDGE  1300   37     280/ 15/ 17 1014.5R
COVE POINT       1300   39     340/ 22/ 24 1014.1R
LEWISETTA        1300   40 36  330/ 14/ 18 1014.3R
SOLOMONS ISLAND  1300      37                N/A
PINEY POINT      1300          350/ 23/ 25   N/A

$$




USA.gov is the U.S. government's official web portal to all federal, state and local government web resources and services.